Regional Weather Roundup
Issued by NWS Sterling, VA

Home | Current Version | Previous Version | Text Only | Print | Product List | Glossary On
Versions: 1 2 3 4 5 6 7 8 9 10 11 12 13 14 15 16 17 18 19 20 21 22 23 24 25 26 27 28 29 30 31 32 33 34 35 36 37 38 39 40 41 42 43 44 45 46 47 48 49 50
000
ASUS41 KLWX 290110
RWRLWX

REGIONAL WEATHER ROUNDUP
NATIONAL WEATHER SERVICE BALTIMORE MD/WASHINGTON DC
900 PM EDT THU MAY 28 2015

Note: "FAIR" indicates few or no clouds below 12,000 feet
with no significant weather and/or obstructions to visibility.
 TC=TEMPERATURE CELSIUS

 * =Non NWS site. Station does not report precipitation (e.g. rain,
    snow, etc.), thunder, or fog.

DCZ001-MDZ009-015-VAZ040>042-051-053>054-290200-
WASHINGTON METRO

CITY           SKY/WX    TMP DP  RH WIND       PRES   REMARKS
WASHINGTON NAT MOCLDY    77  67  71 SW5       30.18R
DULLES         MOCLDY    73  67  81 CALM      30.18R
FT BELVOIR     MOCLDY    75  68  78 CALM      30.18R
QUANTICO       MOCLDY    78  69  73 N3        30.18R
COLLEGE PARK*  MOCLDY    77  64  65 CALM      30.18R
LEESBURG*      MOCLDY    77  68  73 SW3       30.20R
MANASSAS*      CLEAR     72  72 100 CALM      30.18R
GAITHERSBURG*  MOCLDY    79  64  61 CALM      30.23R

$$

MDZ006>007-011-014-290200-
BALTIMORE METRO

CITY           SKY/WX    TMP DP  RH WIND       PRES   REMARKS
BWI AIRPORT    MOCLDY    77  66  68 CALM      30.17R
MD SCIENCE CTR   N/A     81  66  60 MISG      30.18R
MARTIN STATE   MOCLDY    77  72  83 E3        30.19R
ANNAPOLIS      CLOUDY    76  69  79 SE5       30.17S
FORT MEADE*    MOCLDY    73  64  73 S3        30.20R

$$

MDZ012-015-019>023-290200-
MARYLAND EASTERN SHORE

CITY           SKY/WX    TMP DP  RH WIND       PRES   REMARKS
OCEAN CITY     MOCLDY    70  64  81 SW7       30.20R
SALISBURY      PTCLDY    72  66  81 S5        30.19R
BAY BRIDGE AP*   N/A    N/A N/A N/A S5        30.18R
CAMBRIDGE*     MOCLDY    77  70  78 S6        30.18R
EASTON*        CLEAR     79  72  78 SW8       30.22R

$$

MDZ017>025-290200-
SOUTHERN MARYLAND

CITY           SKY/WX    TMP DP  RH WIND       PRES   REMARKS
PATUXENT RIVER MOCLDY    74  68  81 SE7       30.17S
ST INIGOES     PTCLDY    75  68  78 SE7       30.18R
LEONARDTOWN*   PTCLDY    73  68  83 SE3       30.20R

$$

MDZ003>005-290200-
NORTH CENTRAL MARYLAND

CITY           SKY/WX    TMP DP  RH WIND       PRES   REMARKS
FREDERICK*     NOT AVBL
HAGERSTOWN APT MOCLDY    78  56  46 N6        30.20R
WESTMINSTER*   MOCLDY    79  64  61 CALM      30.21R

$$

MDZ501>502-290200-
WESTERN MARYLAND

CITY           SKY/WX    TMP DP  RH WIND       PRES   REMARKS
OAKLAND*       PTCLDY    66  63  88 E3        30.30R
CUMBERLAND*    MOCLDY    77  59  53 CALM      30.24R

$$

VAZ025>031-290200-
SHENANDOAH VALLEY

CITY           SKY/WX    TMP DP  RH WIND       PRES   REMARKS
WINCHESTER*    CLOUDY    73  64  73 CALM      30.20R
FRONT ROYAL*   FAIR      72  68  88 CALM      30.20R
LURAY*         FAIR      73  66  78 CALM      30.21R
NEW MARKET*    CLOUDY    70  66  87 CALM      30.19R
STAUNTON*      MOCLDY    74  65  75 CALM      30.24R
WAYNESBORO*    FAIR      72  64  77 S5        30.23R

$$

WVZ021-048>050-054>055-290200-
EASTERN WEST VIRGINIA PANHANDLE

CITY           SKY/WX    TMP DP  RH WIND       PRES   REMARKS
MARTINSBURG    MOCLDY    78  59  51 N6        30.20R
PETERSBURG*    MOCLDY    69  62  76 CALM      30.21S

$$

VAZ036>039-050-290200-
CENTRAL FOOTHILLS

CITY           SKY/WX    TMP DP  RH WIND       PRES   REMARKS
CHARLOTTESVILL MOCLDY    72  67  84 CALM      30.20R
CULPEPER*      MOCLDY    72  64  75 N3        30.19R
ORANGE*        MOCLDY    72  68  88 CALM      30.21R
GORDONSVILLE*  FAIR      69  68  98 NW5       30.18S
WARRENTON*     FAIR      72  69  90 CALM      30.19R

$$

VAZ055>057-290200-
NORTH AND CENTRAL PIEDMONT

CITY           SKY/WX    TMP DP  RH WIND       PRES   REMARKS
FREDERICKSBRG* MOCLDY    78  71  79 CALM      30.17R
STAFFORD*      MOCLDY    73  71  93 CALM      30.22R

$$

NCZ024-NYZ072-PAZ021-071-VAZ022-071-290200-
OTHER REGIONAL OBSERVATIONS

CITY           SKY/WX    TMP DP  RH WIND       PRES   REMARKS
NEW YORK CITY  MOCLDY    80  55  42 VRB3      30.20R
PHILADELPHIA   MOCLDY    79  67  66 S6        30.17R
PITTSBURGH     PTCLDY    75  52  44 NE6       30.22S
ROANOKE        CLOUDY    76  63  64 SE5       30.24R
RICHMOND       CLOUDY    77  68  73 SE5       30.18R
RALEIGH        MOCLDY    78  68  71 S6        30.19R

$$

ANZ530>537-290200-
MARINE OBSERVATIONS

STATION/POSITION TIME  TEMP    WIND        PRES
                       AIR SEA DIR/SP/G
                 (UTC) (F)     (DEG/KT/KT) (MB)
THOMAS PT LIGHT  0100   74 70  180/ 15/ 16 1022.1R
BALT KEY BRIDGE  0000   80      90/  7/  7 1021.0R
COVE POINT       0000   73     190/ 11/ 13 1022.3R
LEWISETTA        0000   77 76              1021.4R
SOLOMONS ISLAND  0000      75                N/A
PINEY POINT      0000          150/ 10/ 11   N/A

$$




USA.gov is the U.S. government's official web portal to all federal, state and local government web resources and services.